Location: Caltech
(34.1382°N, 118.1253°W)
Time: 01:24:06
(UTC-07:00)

Cosmos 44 Rocket - Visible Passes

Search period start: 25 July 2014 00:00
Search period end: 04 August 2014 00:00
Orbit: 651 x 743 km, 65.1° (Epoch: 23 July)

Date Brightness Start Highest point End Pass type
(mag) Time Alt. Az. Time Alt. Az. Time Alt. Az.
25 Jul 5.6 00:50:07 10° NNW 00:51:30 19° NNW 00:51:30 19° NNW visible
25 Jul 5.3 23:51:20 10° N 23:53:35 23° NNE 23:53:35 23° NNE visible
26 Jul 5.6 22:53:40 10° NNE 22:55:44 13° NE 22:55:44 13° NE visible
27 Jul 5.7 00:33:15 10° NNW 00:34:28 18° NW 00:34:28 18° NW visible
27 Jul 5.1 23:34:14 10° NNW 23:36:39 26° N 23:36:39 26° N visible
28 Jul 5.3 22:36:03 10° N 22:38:52 17° NE 22:38:52 17° NE visible
29 Jul 5.7 00:16:28 10° NW 00:17:36 17° NW 00:17:36 17° NW visible
29 Jul 4.8 23:17:12 10° NNW 23:19:52 32° N 23:19:52 32° N visible
30 Jul 4.9 22:18:42 10° N 22:22:11 23° NE 22:22:11 23° NE visible
30 Jul 5.7 23:59:47 10° NW 00:00:55 16° NW 00:00:55 16° NW visible
31 Jul 4.4 23:00:15 10° NNW 23:03:16 39° NNW 23:03:16 39° NNW visible
01 Aug 4.4 22:01:29 10° N 22:05:39 30° NE 22:05:39 30° NE visible
01 Aug 5.7 23:43:14 10° NW 23:44:24 16° WNW 23:44:24 16° WNW visible
02 Aug 5.4 21:03:55 10° NNE 21:06:00 13° NE 21:08:04 10° ENE visible
02 Aug 4.1 22:43:22 10° NNW 22:46:50 47° NW 22:46:50 47° NW visible
03 Aug 3.8 21:44:22 10° NNW 21:48:51 40° ENE 21:49:19 39° ENE visible
03 Aug 5.8 23:26:54 10° WNW 23:28:04 14° W 23:28:04 14° W visible
